Погода в Барано-Оренбургском

Россия / Приморский край     44°22′09″N   131°27′02″E
темп.,
°C
ветер,
м/с
пор.,
м/с
влажн.,
%
обл.,
%
осадки,
мм/ч
давл.,
гПа
погр.,
м
26 октября, вт
вт2601:00+6юз11610 0.0 101811
04:00+5ююз22600 0.0 101818
07:00+4ююз22655 0.0 101817
10:00+9ююз23525 0.0 1018194
13:00+14ююз46475 0.0 1015707
16:00+16ююз363745 0.0 10121859
19:00+11ююз235768 0.0 101345
22:00+9ююз2264100 0.0 101323
27 октября, ср
ср2701:00+9юз2672100 0.3 1012216
04:00+9зюз1187100 1.7 101256
07:00+7зсз512647 0.0 1013532
10:00+8зсз510540 0.0 1014568
13:00+13сз57321 0.0 10121580
16:00+13сз5829100 0.0 10112335
19:00+10сз5739100 0.0 10131298
22:00+8з4104599 0.0 1013895
28 октября, чт
чт2801:00+6зсз6136042 0.0 10141298
04:00+4сз5117319 0.0 1017844
07:00+5ссз596797 0.0 10201131
10:00+6сз596979 0.0 10231118
13:00+9ссз684564 0.0 10231623
16:00+10ссз47375 0.0 10231673
19:00+6ссз22530 0.0 102623
22:00+4сз22580 0.0 102822
29 октября, пт
пт2901:00+3зсз21590 0.0 102812
04:00+3зсз11590 0.0 102810
07:00+2з11590 0.0 102910
10:00+6ююз11450 0.0 1029180
13:00+11ю22310 0.0 1027687
16:00+12ююв23280 0.0 1025750
19:00+6ю22490 0.0 102613
22:00+5юз11535 0.0 102610
30 октября, сб
сб3001:00+4юз1156100 0.0 102610
04:00+4зюз1156100 0.0 102510
07:00+4сз1153100 0.0 102510
10:00+7с1140100 0.0 1026117
13:00+10ссв2332100 0.0 1026508
16:00+11св34345 0.0 1025801
19:00+6св2258100 0.0 102732
22:00+5ссз2261100 0.0 102847